Regional Weather Roundup
Issued by NWS

Home | Current Version | Previous Version | Graphics & Text | Print | Product List | Glossary On
Versions: 1 2 3 4 5 6 7 8 9 10 11 12 13 14 15 16 17 18 19 20 21 22 23 24 25 26 27 28 29 30 31 32 33 34 35 36 37 38 39 40 41 42 43 44 45 46 47 48 49 50
000
ASUS43 KOAX 230302
RWRNE

WEATHER ROUNDUP FOR NEBRASKA
NATIONAL WEATHER SERVICE OMAHA NE
1000 PM CDT FRI AUG 22 2014

NOTES: SATELLITE DATA IS BEING USED TO AUGMENT CLOUD COVER ABOVE
       12000 FEET.
       "FAIR" INDICATES FEW OR NO CLOUDS BELOW 12,000 FEET WITH NO
       SIGNIFICANT WEATHER AND/OR OBSTRUCTIONS TO VISIBILITY.

  * THESE STATIONS DO NOT REPORT WEATHER SUCH AS RAIN...SNOW OR FOG.

NEZ001>004-019>022-054>056-230400-
NEBRASKA PANHANDLE

CITY           SKY/WX    TMP DP  RH WIND       PRES   REMARKS
SCOTTSBLUFF    CLOUDY    64  62  93 E10       30.03F
ALLIANCE       LGT RAIN  63  61  93 SW3       30.05S
CHADRON        CLOUDY    72  57  59 S8        30.00R
KIMBALL        LGT RAIN  60  58  95 SE9       30.06S
SIDNEY         TSTM      62  59  90 W7        30.08S FOG
$$

NEZ057>060-069>072-079>082-230400-
SOUTHWEST NEBRASKA

CITY           SKY/WX    TMP DP  RH WIND       PRES   REMARKS
NORTH PLATTE   HVY RAIN  69  65  86 N9        29.97R
IMPERIAL       TSTM      70  66  87 VRB3      30.00R FOG
LEXINGTON      CLOUDY    68  65  92 S15G23    29.96R
MCCOOK         LGT RAIN  71  69  93 W10       29.96F
OGALLALA       CLOUDY    69  61  75 NE9       29.99R
$$

NEZ005>010-023>029-035>040-094-230400-
NORTH CENTRAL NEBRASKA

CITY           SKY/WX    TMP DP  RH WIND       PRES   REMARKS
VALENTINE      CLOUDY    72  62  71 CALM      30.00R
AINSWORTH      CLOUDY    71  69  93 E5        30.01R
BROKEN BOW     CLOUDY    78  67  68 NE12      29.97R
O`NEILL        MOCLDY    73  70  92 E6        30.00R
ORD            LGT RAIN  76  68  76 NE10      29.95R
THEDFORD       CLOUDY    69  64  85 NE3       30.01S
$$

NEZ041-046>049-061>064-073>077-083>087-230400-
SOUTH CENTRAL NEBRASKA

CITY           SKY/WX    TMP DP  RH WIND       PRES   REMARKS
GRAND ISLAND   CLOUDY    78  74  87 NE7       29.94R
AURORA         MOCLDY    77  77  99 NE7       29.93R
HASTINGS       CLOUDY    80  69  69 SE9       29.92F
HEBRON         MOCLDY    77  69  76 E5        29.89F
HOLDREGE       TSTM      67  65  95 CALM      29.96F
KEARNEY *      CLOUDY    68  64  88 S16G33    29.97R THUNDER
YORK           PTCLDY    75 N/A N/A E6        29.94R
$$

NEZ011>018-030>034-042>045-230400-
NORTHEAST NEBRASKA

CITY           SKY/WX    TMP DP  RH WIND       PRES   REMARKS
NORFOLK        TSTM      71  64  78 E23G53    29.97R VSB 1
ALBION         RAIN      72  68  87 CALM      29.98R
BLAIR          FOG       76  74  93 CALM      29.95R VSB 1/2
FREMONT        MOCLDY    75  72  89 CALM      29.96R
TEKAMAH        CLOUDY    73  71  93 CALM      29.96R
WAYNE          LGT RAIN  72  71  96 E3        29.98S
$$

NEZ050>053-065>068-078-088>093-230400-
SOUTHEAST NEBRASKA

CITY           SKY/WX    TMP DP  RH WIND       PRES   REMARKS
LINCOLN        PTCLDY    81  70  69 SE7       29.91S
OMAHA EPPLEY   MOCLDY    77  74  90 CALM      29.94R
BEATRICE       MOCLDY    76  73  88 E7        29.90F
FALLS CITY     CLOUDY    76  74  93 E6        29.90F
NEBRASKA CITY  MOCLDY    75  72  88 SE5       29.92F
PLATTSMOUTH    PTCLDY    77  72  85 SE6       29.92S
$$

NEZ044-045-051>053-067-230400-
OMAHA AREA

CITY           SKY/WX    TMP DP  RH WIND       PRES   REMARKS
OMAHA EPPLEY   MOCLDY    77  74  90 CALM      29.94R
BLAIR          FOG       76  74  93 CALM      29.95R VSB 1/2
FREMONT        MOCLDY    75  72  89 CALM      29.96R
MILLARD        PTCLDY    79  74  86 CALM      29.93R
OFFUTT AFB     PTCLDY    75  75 100 NE5       29.92R
PLATTSMOUTH    PTCLDY    77  72  85 SE6       29.92S
WAHOO          FAIR      73  69  88 NE3       29.93S
$$



USA.gov is the U.S. government's official web portal to all federal, state and local government web resources and services.